"Pseudo-MPEC" for P12pBgw

Created 2026 Sep 5 9:35:08 UT using Find_Orb

Click here for an explanation of pseudo-MPECs

 
 Astrometry: 
     P12pBgw 0C2026 09 04.33560523 40 32.472-24 50 05.17   ~9545 20.87gUNEOCPI41
     P12pBgw 0C2026 09 04.41683923 40 09.125-24 49 55.16   ~9545 19.99rUNEOCPI41
     P12pBgw*0C2026 09 04.42062723 40 09.064-24 49 51.34   ~94CK 20.91wXNEOCPF51
     P12pBgw 0C2026 09 04.43127123 40 06.019-24 49 50.05   ~94CK 21.10wXNEOCPF51
     P12pBgw 0C2026 09 04.45273723 39 59.865-24 49 47.42   ~94CK 20.75wXNEOCPF51
     P12pBgw 0C2026 09 04.52622323 39 38.875-24 49 36.50   ~94MK 21.16GVNEOCPF51
     P12pBgw 0C2026 09 04.52687123 39 38.691-24 49 36.40   ~94MK 21.33GVNEOCPF51
     P12pBgw |C2026 09 05.15685023 36 49.110-24 47 40.30   ~954Z 20.0 GVNEOCP807
     P12pBgw |C2026 09 05.16376023 36 47.210-24 47 39.10   ~954Z 21.7 GVNEOCP807
     P12pBgw |C2026 09 05.17104023 36 45.200-24 47 38.10   ~954Z 20.6 GVNEOCP807

Station data:
(807) Cerro Tololo Observatory, La Serena  (S30.169133 W70.805900)  Chile.
   Observer R. Holmes. 0.61-m f/6.5 astrograph + CCD.
(F51) Pan-STARRS 1, Haleakala  (N20.707234 W156.255910)  US/Hawaii.
   Observers J. Herman, T. Lowe, P. Minguez, A. Schultz, I. Smith. Measurers
   K. Chambers, T. de Boer, J. Fairlamb, H. Gao, M. Huber, C.-C. Lin, E.
   Magnier, Y. Ramanjooloo, R. Wainscoat, R. Weryk. 1.8-m Ritchey-Chrétien +
   CCD.
(I41) Palomar Mountain--ZTF  (N33.357336 W116.859780)  US/California.
   Observers B. T. Bolin, Z. T. F. Collaboration. Measurers B. T. Bolin,
   Z.-Y. Lin, F. J. Masci. 1.2-m f/2.4 Schmidt.

Orbital elements:  P12pBgw
   Perihelion 2026 Jun 20.687454 +/- 2.39 TT = 16:29:56.0 (JD 2461212.187454)
Epoch 2026 Sep  5.0 TT = JDT 2461288.5   Earth MOID: 0.0849   Ve: 0.0347
M  29.226294655 +/- 5.8             Me: 0.0183   Ma: 0.0491      AutoNEOCP
n   0.382981518 +/- 0.065           Peri.  160.201286 +/- 3.9
a   1.877950632 +/- 0.213           Node    59.377651 +/- 4.9
e   0.75184328 +/- 0.0356           Incl.    5.887103 +/- 0.09
P   2.574/939.975d         H 21.42  G  0.15   U 10.9
q 0.466026055 +/- 0.0145    Q 3.289875209 +/- 0.439       (J2000 ecliptic)
From 10 observations 2026 Sept. 4-5 (20.1 hr); mean residual 0".28
Residuals in arcseconds: 
260904 I41  .51+  .82+    260904 F51  .04-  .13-    260905 807  .03+  .13+    
260904 I41  .58-  .43-    260904 F51  .06+  .03+    260905 807  .11-  .01+    
260904 F51  .07-  .02-    260904 F51  .07+  .02+    
260904 F51  .00   .02-    260905 807  .06+  .03-    

Ephemerides (geocentric):
Date (UTC) HH   RA             Dec           delta  r     elong  mag " sig PA
---- --------  ------------   ------------  ------ ------ -----  --- --------
2026 09 05 10  23 35 39.752   -24 46 57.12  .40054 1.3908 159.7 21.0 1.09  83
2026 09 05 11  23 35 28.813   -24 46 49.46  .40102 1.3913 159.7 21.0 1.27  84
2026 09 05 12  23 35 17.897   -24 46 41.72  .40150 1.3918 159.7 21.0 1.47  84
2026 09 05 13  23 35 07.006   -24 46 33.91  .40198 1.3923 159.7 21.0 1.67  85
2026 09 05 14  23 34 56.140   -24 46 26.01  .40246 1.3928 159.8 21.0 1.89  85
2026 09 05 15  23 34 45.297   -24 46 18.04  .40294 1.3933 159.8 21.0 2.12  86
2026 09 05 16  23 34 34.479   -24 46 09.99  .40342 1.3938 159.8 21.0 2.35  86
2026 09 05 17  23 34 23.684   -24 46 01.87  .40390 1.3943 159.8 21.0 2.60  86
2026 09 05 18  23 34 12.914   -24 45 53.66  .40438 1.3948 159.9 21.0 2.86  87
2026 09 05 19  23 34 02.168   -24 45 45.38  .40486 1.3953 159.9 21.0 3.13  87
2026 09 05 20  23 33 51.445   -24 45 37.03  .40535 1.3958 159.9 21.0 3.41  87
2026 09 05 21  23 33 40.747   -24 45 28.60  .40583 1.3963 159.9 21.0 3.69  88
2026 09 05 22  23 33 30.073   -24 45 20.09  .40631 1.3968 160.0 21.0 3.99  88
2026 09 05 23  23 33 19.422   -24 45 11.51  .40680 1.3973 160.0 21.0 4.30  88
2026 09 06 00  23 33 08.795   -24 45 02.85  .40728 1.3978 160.0 21.0 4.62  88
2026 09 06 01  23 32 58.192   -24 44 54.12  .40777 1.3983 160.0 21.0 4.95  89
2026 09 06 02  23 32 47.613   -24 44 45.31  .40825 1.3988 160.0 21.0 5.28  89
2026 09 06 03  23 32 37.057   -24 44 36.43  .40874 1.3993 160.1 21.0 5.63  89
2026 09 06 04  23 32 26.525   -24 44 27.48  .40922 1.3998 160.1 21.0 5.99  89
2026 09 06 05  23 32 16.016   -24 44 18.46  .40971 1.4003 160.1 21.0 6.35  89
2026 09 06 06  23 32 05.531   -24 44 09.36  .41019 1.4008 160.1 21.0 6.73  90
2026 09 06 07  23 31 55.070   -24 44 00.19  .41068 1.4013 160.1 21.0 7.11  90
2026 09 06 08  23 31 44.632   -24 43 50.94  .41117 1.4018 160.2 21.0 7.51  90
2026 09 06 09  23 31 34.217   -24 43 41.63  .41166 1.4023 160.2 21.0 7.91  90
2026 09 06 10  23 31 23.826   -24 43 32.24  .41214 1.4028 160.2 21.0 8.32  90
2026 09 06 11  23 31 13.458   -24 43 22.79  .41263 1.4033 160.2 21.0 8.74  90
2026 09 06 12  23 31 03.113   -24 43 13.26  .41312 1.4037 160.2 21.0 9.17  91
2026 09 06 13  23 30 52.792   -24 43 03.66  .41361 1.4042 160.2 21.0 9.61  91
2026 09 06 14  23 30 42.493   -24 42 53.99  .41410 1.4047 160.3 21.0 10.1  91
2026 09 06 15  23 30 32.218   -24 42 44.26  .41459 1.4052 160.3 21.0 10.5  91
2026 09 06 16  23 30 21.966   -24 42 34.45  .41508 1.4057 160.3 21.0 11.0  91
2026 09 06 17  23 30 11.737   -24 42 24.57  .41557 1.4062 160.3 21.0 11.5  91
2026 09 06 18  23 30 01.531   -24 42 14.63  .41607 1.4067 160.3 21.1 11.9  91
2026 09 06 19  23 29 51.348   -24 42 04.62  .41656 1.4072 160.3 21.1 12.4  92
2026 09 06 20  23 29 41.188   -24 41 54.54  .41705 1.4077 160.4 21.1 12.9  92
2026 09 06 21  23 29 31.050   -24 41 44.39  .41754 1.4082 160.4 21.1 13.4  92
2026 09 06 22  23 29 20.936   -24 41 34.17  .41804 1.4087 160.4 21.1 14.0  92
2026 09 06 23  23 29 10.844   -24 41 23.89  .41853 1.4092 160.4 21.1 14.5  92
2026 09 07 00  23 29 00.775   -24 41 13.54  .41902 1.4097 160.4 21.1 15.0  92
2026 09 07 01  23 28 50.729   -24 41 03.12  .41952 1.4102 160.4 21.1 15.6  92
2026 09 07 02  23 28 40.706   -24 40 52.64  .42001 1.4107 160.4 21.1 16.1  92
2026 09 07 03  23 28 30.705   -24 40 42.09  .42051 1.4112 160.5 21.1 16.7  92
2026 09 07 04  23 28 20.726   -24 40 31.48  .42100 1.4117 160.5 21.1 17.2  92
2026 09 07 05  23 28 10.771   -24 40 20.80  .42150 1.4122 160.5 21.1 17.8  93
2026 09 07 06  23 28 00.837   -24 40 10.06  .42200 1.4126 160.5 21.1 18.4  93
2026 09 07 07  23 27 50.927   -24 39 59.25  .42249 1.4131 160.5 21.1 19.0  93
2026 09 07 08  23 27 41.038   -24 39 48.38  .42299 1.4136 160.5 21.1 19.6  93
2026 09 07 09  23 27 31.172   -24 39 37.44  .42349 1.4141 160.5 21.1 20.2  93